Погода в Посёлке Челюскинцев

Россия / Тюменская область     55°45′44″N   69°37′46″E
темп.,
°C
ветер,
м/с
пор.,
м/с
влажн.,
%
обл.,
%
осадки,
мм/ч
давл.,
гПа
погр.,
м
15 апреля, чт
чт1523:00+7зюз410945 0.0 1027155
02:00+7зюз48935 0.0 1026116
05:00+6зюз48935 0.0 1026118
08:00+9зюз49875 0.0 1026221
11:00+14зюз58736 0.0 1024494
14:00+17зюз686215 0.0 1023818
17:00+17зюз69635 0.0 1021812
20:00+12юз511785 0.0 1020266
16 апреля, пт
пт1623:00+9юз512825 0.0 1019236
02:00+8юз5128551 0.0 1018203
05:00+7зюз41185100 0.0 1017199
08:00+10зсз4882100 0.0 1017337
11:00+6ссв61087100 0.0 1021580
14:00+5ссв5975100 0.0 1023737
17:00+8св575353 0.0 10241451
20:00+4св49635 0.0 1025228
17 апреля, сб
сб1723:00+2всв49745 0.0 1026260
02:000в37785 0.0 1025163
05:000юв24805 0.0 1024111
08:00+3ююз23675 0.0 1023305
11:00+7з35550 0.0 10221342
14:00+9зсз5743100 0.0 10212147
17:00+9сз474140 0.0 10202014
20:00+6зсз2259100 0.0 102015
18 апреля, вс
вс1823:00+4вюв1166100 0.0 101829
02:00+4юз3473100 0.0 101561
05:00+3юз51175100 0.0 1013291
08:00+5зюз61366100 0.0 1010631
11:00+6зсз71059100 0.0 10091477
14:00+5сз81252100 0.2 10101794
17:00+1ссз1013538 0.2 10131378
20:00−5с10156479 0.0 10171104
19 апреля, пн
пн1923:00−6с913535 0.0 10191138
02:00−8с813515 0.0 10211107
05:00−8с812537 0.0 10231282
08:00−7с91143100 0.0 10251502
11:00−5с81034100 0.0 10251952
14:00−3с81032100 0.0 10262407
17:00−1с81028100 0.0 10262611
20:00−3с5103787 0.0 1028598